Back to catalog

CZ-6A DEB

AliveSSO
NORAD 54445·DEBRIS·🇨🇳 China

Launched Nov 11, 2022 from Taiyuan Satellite Launch Center

Loading…

Next Passes (next 24 hours)

TLE

FreshSource: Space-Track

Epoch: Sep 14, 2026, 08:17 UTC

1 54445U 22151FV  26257.34539976  .00000570  00000-0  21841-3 0  9992
2 54445  98.7278 302.0748 0053822  85.3065 275.4263 14.33635665200391

Track CZ-6A DEB in real time with AllMySat

Download on the App Store